Miscellaneous Local Product
Issued by NWS North Platte, NE

Home | Current Version | Previous Version | Text Only | Print | Product List | Glossary On
Versions: 1 2 3 4 5 6 7 8 9 10 11 12 13 14 15 16 17 18 19 20 21 22 23 24 25 26 27 28 29 30 31 32 33 34 35 36 37 38 39 40 41 42 43 44 45 46 47 48 49 50
000
AXUS43 KLBF 222110
MISLBF


WESTERN AND NORTH CENTRAL NEBRASKA HOURLY WEATHER ROUNDUP
NATIONAL WEATHER SERVICE NORTH PLATTE NE
400 PM CDT THU JUN 22 2017

NOTE: "FAIR" INDICATES FEW OR NO CLOUDS BELOW 12,000 FEET WITH NO
SIGNIFICANT WEATHER AND/OR OBSTRUCTIONS TO VISIBILITY.

NOTE: STATIONS NOT REPORTING VARIABLES SUCH AS SKY/WEATHER OR
PRESSURE ARE PROVIDED BY RAWS AND APRS NETWORKS AND ARE NOT UNDER
NATIONAL WEATHER SERVICE QUALITY CONTROL.

...OBSERVATIONS IN AND NEAR THE EASTERN PANHANDLE OF NEBRASKA...

CITY           SKY/WX    TMP DP  RH WIND       PRES   REMARKS
PINE RIDGE     SUNNY     78  52  40 N15G25    29.91F
GORDON         FAIR      75  51  42 N9G22     29.91F
CHADRON        SUNNY     78  46  32 N13G24    29.91F
ALLIANCE       MOSUNNY   76  55  48 N10G22    29.92R
SIDNEY         SUNNY     82  54  37 NE21G28   29.91R
CRESCENT LAKE    N/A     75  55  50 NE14G23     N/A
$$

...OBSERVATIONS IN NORTHERN NEBRASKA AND FAR SOUTHERN SOUTH DAKOTA...

CITY           SKY/WX    TMP DP  RH WIND       PRES   REMARKS
WINNER         PTSUNNY   79  46  31 N12G21    29.84F
VALENTINE      CLOUDY    73  44  35 NE9       29.88S
THEDFORD       MOSUNNY   78  57  49 NE16      29.86S
AINSWORTH      CLOUDY    73  54  52 N18G25    29.87R
O`NEILL        CLOUDY    78  61  56 N17       29.80R
ORD            CLOUDY    83  56  39 NE17G28   29.73R
BROKEN BOW     MOSUNNY   83  60  45 N16G28    29.77R
VALENTINE NWR    N/A     72  56  57 N13G23      N/A
HALSEY           N/A     76  57  51 N9G20       N/A
BUTTE            N/A     68  58  70 N12G18      N/A
CHAMBERS         N/A     84  59  42 N9          N/A
EWING            N/A     82  65  55 N5G13       N/A
$$

...OBSERVATIONS IN SOUTHWEST NEBRASKA AND FAR NORTHEAST COLORADO...

CITY           SKY/WX    TMP DP  RH WIND       PRES   REMARKS
WRAY           FAIR      88  52  29 NE24G30   29.82S
IMPERIAL       SUNNY     88  54  31 NE22G31   29.79F
OGALLALA       SUNNY     85  56  36 NE20G28   29.84S
NORTH PLATTE   SUNNY     86  57  37 NE20G32   29.79R
MCCOOK         SUNNY     93  64  38 NE23G31   29.71R HX  94
LEXINGTON      PTSUNNY   83  65  53 N20G26    29.74R
STAPLETON        N/A     78  59  52 CALM        N/A
GOTHENBURG       N/A     82  58  44 N13         N/A
CALLAWAY         N/A     80  62  54 E20         N/A
$$

...OBSERVATIONS IN CENTRAL LINCOLN COUNTY AREA...

CITY           SKY/WX    TMP DP  RH WIND       PRES   REMARKS
N.P. AIRPORT   SUNNY     86  57  37 NE20G32   29.79R
N.P. DOWNTOWN    N/A     82  58  44 NE14G26     N/A
N.P. HILLCREST   N/A     81  58  45 NE22G35     N/A
$$

...SOME OBSERVATIONS FROM AROUND THE REGION...

CITY           SKY/WX    TMP DP  RH WIND       PRES   REMARKS
DENVER         CLOUDY    87  47  24 NE16      29.95R
LIMON          CLOUDY    82  46  28 NW24G30   29.96R
ASPEN          CLOUDY    83  25  12 VRB5      30.09S
LARAMIE        SUNNY     85  23  10 NW24G37   30.03F
CASPER         SUNNY     75  37  25 VRB3      30.00F
CHEYENNE       CLOUDY    76  41  28 N12G21    30.01S
SCOTTSBLUFF    SUNNY     80  51  36 NE13G22   29.90F
GRAND ISLAND   CLOUDY    88  66  48 N9        29.66R HX  90
OMAHA          CLOUDY    89  69  51 S10       29.62S HX  93
SIOUX FALLS    CLOUDY    71  64  78 NE14      29.77R
PIERRE         MOSUNNY   77  47  34 NW8       29.83S
RAPID CITY     SUNNY     76  39  26 N10G26    29.93F
BISMARCK       MOSUNNY   77  32  19 W21G31    29.82R
KANSAS CITY    PTSUNNY   85  73  67 S13       29.69F HX  91
HILL CITY      SUNNY    103  54  19 NE13G21   29.63F HX 101
WICHITA        MOSUNNY   92  67  43 S12       29.65F HX  95
DODGE CITY     SUNNY     94  64  37 S18G25    29.67F HX  95
OKLAHOMA CITY  MOSUNNY   92  66  42 S9        29.67F HX  94
DALLAS         CLOUDY    89  72  56 VRB6      29.65F HX  96
AMARILLO       SUNNY     98  54  22 S12G24    29.77F HX  96
$$




USA.gov is the U.S. government's official web portal to all federal, state and local government web resources and services.